Home > Time Zones > World Clock > Weather > Iran > Ahvaz > Past weeks

Flag for Iran Weather past 2 weeks in Ahvaz, Iran

Now
61 °F

Clear.


Feels Like: 61 °F
Forecast: 56 / 77 °F
Wind: No wind

Location: Ahwaz

Current Time: Mar 1, 2015 at 11:59:04 PM

Latest Report: Mar 1, 2015 at 11:30 PM


Visibility: 10 mi

Pressure: 29.89 "Hg

Humidity: 59%

Dew point: 46 °F

Location of AhvazLocation

Historic Weather in Ahvaz — Graph

°F

Ahvaz temperature yesterday

Maximum temperature yesterday: 79 °F (at 2:30 PM)
Minimum temperature yesterday: 48 °F (at 6:30 AM)
Average temperature yesterday: 65 °F

Past Weeks' High & Low Weather Summary

 TemperatureHumidityPressure
High79 °F (Feb 28, 2:30 PM)100% (Feb 18, 7:30 AM)30.15 "Hg (Feb 18, 7:30 AM)
Low43 °F (Feb 23, 4:30 AM)19% (Feb 15, 3:30 PM)29.56 "Hg (Feb 20, 2:30 PM)
Average61 °F59%29.96 "Hg
* Reported Feb 14 10:30 PM — Mar 1 10:30 PM, Ahvaz, Weather by CustomWeather, © 2015

Note: Actual official high and low records may vary slightly from our data, if they occured in-between our weather recording intervals... More about our weather records

Advertising

Ahvaz weather history for previous 24 hours

 ConditionsComfort  
Time TempWeatherWind HumidityBarometerVisibility
10:30 PM
Sun, Mar 1
63 °FClear.2 mph59%29.89 "Hg10 mi
10:00 PM61 °FClear.2 mph68%29.89 "Hg10 mi
9:30 PM63 °FClear.No wind64%29.86 "Hg10 mi
8:30 PM66 °FClear.No wind52%29.86 "Hg10 mi
7:30 PM70 °FClear.2 mph43%29.86 "Hg10 mi
7:00 PM70 °FClear.No wind50%29.86 "Hg10 mi
6:30 PM73 °FSunny.No wind44%29.86 "Hg10 mi
6:00 PM73 °FSunny.2 mph31%29.86 "Hg10 mi
5:30 PM77 °FSunny.2 mph26%29.86 "Hg10 mi
5:00 PM77 °FSunny.5 mph28%29.86 "Hg10 mi
4:30 PM77 °FSunny.5 mph32%29.86 "Hg10 mi
4:00 PM79 °FSunny.5 mph30%29.86 "Hg10 mi
3:30 PM79 °FSunny.5 mph30%29.86 "Hg10 mi
3:00 PM77 °FSunny.5 mph28%29.86 "Hg10 mi
2:30 PM77 °FSunny.5 mph28%29.86 "Hg10 mi
2:00 PM77 °FSunny.7 mph32%29.89 "Hg10 mi
1:30 PM75 °FSunny.5 mph34%29.89 "Hg10 mi
1:00 PM75 °FSunny.7 mph29%29.92 "Hg10 mi
12:30 PM75 °FSunny.7 mph29%29.92 "Hg5 mi
12:00 PM73 °FSunny.7 mph36%29.92 "Hg4 mi
11:30 AM72 °FSunny.7 mph38%29.92 "Hg4 mi
11:00 AM70 °FSunny.5 mph50%29.95 "Hg3 mi
10:30 AM68 °FSunny.2 mph53%29.95 "Hg2 mi
10:00 AM64 °FSunny.2 mph64%29.95 "Hg3 mi
9:30 AM63 °FSunny.2 mph68%29.95 "Hg2 mi
8:30 AM59 °FFog.2 mph77%29.95 "Hg2 mi
8:00 AM55 °FFog.No wind88%29.92 "Hg2 mi
7:30 AM54 °FFog.No wind94%29.92 "Hg2 mi
7:00 AM54 °FFog.2 mph94%29.92 "Hg2 mi
6:30 AM54 °FClear.2 mph94%29.92 "Hg4 mi
5:30 AM50 °FClear.5 mph88%29.92 "Hg5 mi
4:30 AM52 °FClear.No wind77%29.92 "Hg10 mi
3:30 AM54 °FClear.No wind77%29.92 "Hg10 mi
2:30 AM55 °FClear.7 mph72%29.95 "Hg10 mi
1:30 AM54 °FClear.No wind82%29.95 "Hg10 mi
12:30 AM55 °FClear.No wind77%29.95 "Hg10 mi
11:55 PM
Sat, Feb 28
57 °FClear.No wind72%29.95 "Hg10 mi
11:30 PM57 °FClear.No wind67%29.95 "Hg10 mi
Weather by CustomWeather, © 2015

See weather overviewHow to use our weather pages